Temp
5 5 5 5 5 5 5 5 5 6 6 6 5 7 8 11 11 12 13 13 12 12 13 12 13 14 14 13 14 16 14 12 11 12 13 13 14 13 13 12 13 8 8 12
5 4 5 5 5 5 4 3 4 6 5 5 7 7 9 11 12 12 12 13 14 13 13 13 13 13 11 12 15 16 13 13 10 12 12 12 13 12 13 12 11 10 10 13
5 5 4 5 5 5 5 3 3 4 4 5 6 8 9 10 12 13 13 14 13 13 13 13 13 11 11 11 13 14 15 12 15 17 15 12 11 12 12 15 11 12 11 11
4 4 4 4 4 5 4 2 3 3 4 5 5 6 8 9 9 11 11 13 13 13 11 12 11 10 10 11 11 12 14 13 14 13 12 12 12 12 13 14 16 14 13 12
4 4 4 4 4 4 4 3 3 3 3 4 5 5 7 10 6 8 8 9 7 7 10 11 9 9 11 12 10 11 11 10 10 11 12 13 14 12 14 14 13 14 11 12
4 4 4 4 4 4 4 3 2 3 4 5 6 7 7 8 8 6 8 7 8 9 8 7 7 7 8 9 10 9 9 9 9 10 9 10 12 10 11 12 12 14 12 11
4 3 3 3 4 4 4 4 3 3 5 5 5 5 7 9 10 6 7 8 9 6 7 8 9 8 8 8 7 9 9 9 7 6 8 9 10 7 8 10 8 8 8 7
3 3 3 3 4 4 4 3 3 3 4 5 5 5 6 7 8 6 7 6 7 7 8 8 9 8 9 7 6 7 8 8 7 9 8 10 7 7 8 11 11 7 6 6
4 4 4 4 4 4 4 4 3 3 3 4 3 5 4 6 6 5 5 6 7 7 7 8 9 10 9 8 6 6 7 7 10 8 11 10 9 6 7 9 10 5 6 5
3 3 3 3 4 4 4 3 3 3 3 3 2 5 5 4 5 6 5 5 5 5 7 8 10 11 8 9 10 8 8 7 11 10 9 8 5 6 7 11 11 5 6 6
2 3 3 3 3 3 3 3 2 2 3 3 1 2 2 4 4 6 4 6 5 5 7 7 6 6 6 5 5 7 10 10 10 8 9 10 5 6 8 5 4 5 5 5
2 2 3 3 3 2 2 2 2 2 2 2 1 1 1 1 1 3 4 4 5 5 5 5 4 4 3 4 6 5 7 7 7 8 6 4 3 5 5 5 5 4 4 3
1 1 2 3 3 2 2 2 1 2 2 2 2 1 0 2 1 2 4 3 3 3 2 3 3 4 1 4 4 4 4 4 4 6 3 2 2 3 3 4 3 3 3 3
1 1 1 2 3 2 2 1 1 1 1 2 2 0 -0 0 2 3 3 3 2 2 2 3 4 3 2 2 3 3 2 4 3 1 0 1 -0 0 1 1 1 0 -0 0
0 0 1 2 2 2 2 1 1 1 1 2 2 0 0 1 2 2 3 3 2 1 2 2 2 1 2 -0 2 -1 -2 -1 4 4 2 2 -1 -2 -0 -1 -2 -2 -2 -3
-0 0 0 1 1 2 2 1 1 0 0 0 1 -1 -0 -0 1 1 1 1 0 1 1 1 1 0 1 2 0 -3 -4 -3 -3 -1 -3 -3 -4 -4 -3 -3 -3 -3 -4 -4
-0 -0 0 1 1 2 1 1 0 0 1 -1 -0 1 -0 -1 -0 0 0 -0 -1 0 -0 0 0 1 -0 -0 -0 -4 -5 -5 -4 -3 -1 -2 -5 -6 -5 -5 -5 -5 -6 -6
-1 -0 0 0 2 1 1 1 -0 1 0 -2 -3 -2 0 -1 0 1 -1 -0 -0 -1 -0 -0 1 0 -1 -3 -5 -5 -5 -5 -6 -6 -5 -6 -6 -6 -6 -6 -6 -7 -7 -8
-1 1 1 1 1 -2 0 0 1 1 -0 -3 -3 -2 -1 -1 -0 -0 0 -1 -0 -1 -1 0 0 -2 -5 -6 -5 -7 -8 -6 -7 -6 -7 -7 -7 -8 -8 -8 -8 -8 -9 -9
0 1 -1 -5 -0 -2 0 1 -6 -7 -7 -4 -2 -3 -2 -3 -0 -0 0 -1 -1 -1 -0 -1 -3 -6 -8 -10 -10 -10 -10 -9 -7 -6 -7 -7 -8 -9 -10 -10 -10 -9 -10 -9
-2 -8 -5 -2 -1 -1 -9 -8 -7 -9 -7 -3 -3 -4 -3 -3 -1 -0 -2 -2 -3 -1 -1 -1 -2 -4 -9 -11 -11 -11 -10 -10 -10 -10 -10 -10 -10 -11 -11 -11 -10 -10 -10 -11
-3 -3 -3 -3 -7 -10 -6 -14 -8 -5 -3 -3 -5 -4 -4 -4 -5 -3 -4 -3 -3 -3 -5 -5 -4 -9 -9 -10 -10 -11 -11 -11 -11 -11 -11 -11 -11 -11 -11 -12 -12 -12 -12 -11
-1 -5 -9 -8 -10 -8 -9 -8 -8 -7 -7 -6 -6 -5 -6 -5 -6 -7 -5 -5 -6 -4 -8 -6 -10 -9 -10 -11 -11 -11 -12 -11 -11 -12 -12 -12 -12 -12 -12 -12 -12 -12 -12 -12
-9 -10 -8 -10 -8 -6 -6 -6 -6 -6 -7 -8 -8 -6 -7 -9 -8 -12 -7 -6 -6 -9 -8 -7 -12 -11 -11 -11 -11 -11 -13 -13 -13 -13 -13 -13 -13 -13 -13 -13 -13 -13 -13 -12
-13 -11 -10 -10 -8 -7 -7 -8 -7 -8 -9 -9 -7 -6 -8 -8 -10 -11 -9 -8 -10 -11 -8 -10 -11 -11 -11 -11 -12 -14 -15 -17 -15 -14 -14 -14 -14 -14 -13 -13 -12 -12 -12 -12
-15 -15 -12 -10 -12 -14 -13 -12 -10 -10 -11 -10 -7 -5 -5 -5 -9 -8 -10 -10 -10 -10 -11 -11 -11 -12 -12 -13 -13 -14 -14 -14 -14 -14 -14 -14 -13 -13 -13 -12 -12 -13 -13 -13
-17 -16 -13 -14 -14 -15 -16 -16 -14 -12 -11 -7 -6 -4 -5 -6 -7 -8 -8 -9 -9 -10 -10 -11 -12 -14 -16 -14 -12 -13 -13 -14 -14 -14 -13 -13 -14 -14 -13 -13 -13 -13 -13 -13
Height
750 745 742 739 736 733 730 729 721 708 706 707 701 698 693 677 679 678 673 674 686 691 696 709 710 708 709 709 711 720 729 751 770 767 763 762 758 766 769 787 792 819 819 791
752 747 743 739 735 732 726 725 717 705 705 700 691 687 680 673 672 675 672 672 669 682 688 700 700 703 711 710 709 711 724 743 778 771 768 766 762 763 761 771 783 797 806 780
753 748 743 739 734 730 723 723 718 707 702 696 687 678 672 672 666 668 665 665 669 678 685 687 695 709 713 713 709 710 711 732 727 726 730 749 762 757 758 753 786 777 776 778
754 748 744 738 733 727 724 723 717 711 704 694 692 689 671 666 671 670 669 667 669 674 691 691 695 707 714 715 714 716 716 726 729 733 736 738 741 744 748 750 743 758 758 769
755 749 743 737 731 726 721 720 715 708 698 689 683 680 666 656 675 672 680 680 691 691 686 682 699 699 700 703 717 717 724 740 739 746 738 736 736 743 739 740 751 750 763 761
754 748 742 736 730 725 718 714 711 709 695 684 678 666 664 659 662 680 676 681 683 683 688 691 693 699 698 700 708 724 730 739 744 752 753 751 746 747 748 743 744 743 757 755
753 747 741 735 730 725 721 715 712 706 689 683 679 675 663 659 654 676 678 677 675 692 686 688 694 698 704 711 720 717 726 735 753 772 764 767 739 757 752 745 759 758 760 766
751 745 739 734 729 724 720 716 711 706 696 688 683 677 669 661 661 675 675 680 680 681 684 697 706 716 708 727 734 731 722 735 756 752 764 747 757 756 753 739 745 760 764 770
750 744 739 734 728 724 719 714 712 708 703 692 689 674 673 666 671 680 683 686 685 687 692 699 702 704 708 722 734 735 730 736 731 755 739 744 737 746 746 741 746 760 763 770
752 745 739 733 726 722 718 714 711 706 700 695 692 682 680 679 674 675 683 687 693 692 694 699 694 695 714 710 708 728 733 740 726 734 740 746 754 748 746 740 733 755 760 767
754 748 741 734 729 723 718 714 710 706 700 695 693 691 688 682 680 673 684 686 693 698 699 705 712 715 717 728 728 719 711 720 722 741 737 728 746 749 746 754 756 760 764 771
758 750 744 737 731 725 719 714 709 704 702 700 698 696 695 695 692 687 685 684 686 689 698 706 713 725 729 727 722 731 730 728 728 730 742 747 752 747 751 751 754 765 767 777
758 752 745 739 733 728 723 718 712 705 703 701 700 701 697 692 690 688 687 691 694 694 699 704 710 716 728 722 730 734 738 733 734 732 756 761 760 758 756 756 760 767 771 777
757 750 744 738 733 729 723 722 717 712 709 707 708 704 702 698 692 691 691 693 696 699 700 704 708 715 721 729 726 731 741 734 740 759 765 764 768 768 767 768 770 775 780 783
756 749 743 737 732 728 723 721 720 716 716 711 710 710 708 704 700 697 698 698 700 704 707 711 718 723 724 736 731 751 760 752 738 742 753 754 773 777 774 773 781 785 786 794
753 747 740 735 730 725 721 722 720 718 716 716 715 717 715 709 706 703 704 704 705 709 712 719 721 726 727 732 745 766 767 762 759 756 764 769 781 784 782 781 788 792 796 802
750 742 736 733 728 726 727 731 729 722 718 719 721 717 718 715 712 710 710 710 713 715 720 724 727 729 732 741 751 772 771 769 767 768 766 776 786 792 791 790 795 799 804 809
746 738 733 730 728 727 727 727 725 722 720 720 734 731 723 723 720 718 719 718 717 721 725 728 730 734 742 766 777 779 778 776 775 775 773 781 789 793 798 799 800 804 809 814
741 734 731 730 730 730 728 726 725 724 727 734 738 742 736 731 727 725 723 724 727 731 733 733 734 748 769 782 782 786 785 780 785 785 786 790 794 799 802 804 807 810 815 817
740 735 734 740 736 732 728 726 730 733 736 737 744 744 742 740 730 730 729 732 739 742 744 744 756 779 792 794 793 792 791 789 789 788 794 797 799 804 808 810 812 814 818 820
748 749 748 740 734 731 736 751 753 761 761 753 753 752 748 744 739 735 740 743 747 746 748 747 757 774 794 796 796 796 795 795 795 796 797 800 804 810 813 814 816 818 821 823
760 758 753 747 747 752 757 792 771 765 765 762 763 758 755 751 749 747 750 750 754 758 764 764 773 796 798 801 802 801 800 802 803 803 806 809 811 814 817 820 821 823 824 824
759 759 763 766 775 785 796 797 793 786 782 776 773 765 762 755 756 762 759 764 772 764 782 781 799 795 800 803 804 806 805 805 805 807 810 813 817 820 822 824 824 824 824 823
774 784 790 799 800 797 797 797 793 791 789 784 780 770 770 768 768 784 774 774 773 793 792 786 803 800 802 804 806 807 811 811 813 815 818 820 821 822 823 824 823 823 822 819
794 794 814 813 805 802 801 801 795 795 793 787 778 772 774 775 782 787 784 786 803 803 793 797 800 801 804 807 810 812 814 815 816 817 819 820 821 821 822 821 820 820 819 816
804 816 819 812 815 818 812 808 802 799 794 786 779 771 770 771 783 785 797 800 802 798 797 800 801 804 807 810 812 814 815 816 817 818 819 820 820 819 819 818 818 818 816 813
820 829 821 823 823 824 820 815 809 803 796 784 779 769 772 777 782 791 789 795 794 798 799 802 804 808 811 812 814 815 817 818 819 819 819 818 818 817 817 817 817 815 813 809
Wind_Speed
26 23 18 17 17 19 9 3 4 4 9 5 3 5 8 6 7 5 5 5 6 10 13 6 8 13 4 8 14 17 6 5 5 6 3 2 2 6 5 5 6 2 3 6
29 27 25 22 21 19 5 2 4 9 7 4 4 4 11 12 16 6 5 7 4 4 9 7 6 6 3 4 12 15 9 5 4 4 3 3 4 6 4 6 3 7 6 5
27 27 27 26 25 23 13 2 3 3 2 2 4 5 7 10 17 4 3 4 4 6 4 3 11 5 2 2 3 4 9 3 8 13 5 7 6 7 7 7 3 5 6 4
31 28 28 27 27 27 11 2 3 2 3 3 4 7 10 19 6 1 2 2 3 6 6 3 5 4 4 4 1 4 4 6 4 3 3 5 5 9 17 16 17 8 6 9
31 32 31 28 27 28 3 2 3 2 5 9 8 7 10 23 5 8 5 6 4 3 7 7 9 8 4 6 2 4 1 2 3 2 2 1 3 7 17 19 4 4 6 4
30 31 31 30 28 24 4 4 4 2 5 4 4 2 6 15 11 1 2 8 5 4 3 4 8 5 10 6 8 4 4 5 3 3 1 3 4 7 8 5 4 10 9 7
30 30 31 28 27 19 10 5 3 3 4 4 5 6 3 16 15 9 4 3 4 4 12 10 9 14 14 12 9 4 6 6 3 3 2 2 3 2 1 5 1 3 4 4
30 28 27 24 24 24 15 13 3 2 4 4 7 10 2 3 4 4 4 3 2 15 3 5 5 4 5 6 6 5 4 4 3 5 3 2 2 6 7 7 5 5 8 10
32 28 26 25 23 22 17 10 9 3 3 2 8 5 5 1 4 3 3 4 9 2 3 3 4 4 4 5 3 4 5 3 3 1 5 8 1 4 4 3 4 8 9 15
36 33 30 28 25 20 16 7 14 5 3 4 5 3 3 3 2 4 4 5 2 3 3 2 3 5 1 5 8 5 3 2 12 7 3 6 3 3 2 7 6 8 12 14
38 36 34 33 28 25 21 11 16 7 2 3 5 7 5 4 3 1 4 4 2 1 4 4 4 4 6 4 1 5 9 9 6 3 5 13 5 3 7 3 6 10 13 10
36 36 34 33 31 25 22 8 23 10 1 3 5 4 8 8 5 2 3 2 2 2 4 2 3 2 2 5 5 1 3 4 5 2 2 3 4 2 2 4 13 7 10 11
36 35 32 30 29 24 22 12 20 5 2 1 3 4 14 20 21 5 1 2 2 2 2 3 2 3 2 4 2 4 2 2 3 4 4 4 6 7 6 7 10 10 13 14
35 35 32 29 26 26 13 12 23 5 2 2 1 11 6 19 17 8 8 6 7 3 2 3 2 3 1 1 3 2 1 2 5 5 4 9 9 8 7 13 13 14 12 9
35 34 30 26 24 22 13 3 14 20 3 1 2 6 16 22 20 21 15 7 4 2 2 2 2 2 2 1 3 3 5 2 2 3 9 4 4 4 5 15 12 11 16 12
38 35 28 25 21 19 4 2 4 29 9 1 2 2 5 14 15 13 9 4 3 2 2 2 2 2 2 2 3 3 4 5 2 3 8 15 10 9 8 15 12 13 14 15
40 35 25 20 13 7 4 1 11 24 8 1 2 2 4 10 6 3 3 4 2 2 2 3 2 2 3 2 3 3 7 9 8 10 13 11 6 5 8 16 18 22 20 19
40 32 23 10 6 2 1 6 24 15 2 2 2 2 3 10 3 2 4 3 3 5 2 1 3 1 2 4 3 4 5 9 13 11 11 11 12 13 11 14 15 12 9 9
35 24 10 2 5 6 10 24 10 5 6 2 3 2 2 6 3 2 2 2 3 2 3 3 2 4 5 4 3 3 5 4 8 12 14 13 13 10 9 9 9 10 7 8
25 12 7 4 7 22 11 3 4 5 4 4 3 2 3 3 3 3 2 3 2 2 3 1 3 3 3 4 5 3 4 5 3 10 8 8 9 8 7 8 8 9 7 6
13 7 3 12 18 6 4 3 4 4 5 4 3 3 3 3 3 2 3 1 2 2 2 2 2 2 2 2 5 5 6 10 11 11 11 12 8 6 5 5 8 8 6 5
13 14 11 7 7 4 6 2 4 5 4 5 3 3 3 3 2 2 3 2 2 1 2 3 2 0 5 4 4 6 9 12 12 15 12 13 13 11 9 6 5 3 2 3
4 6 5 4 4 9 6 8 4 4 6 5 5 4 2 3 3 3 3 5 1 1 4 1 2 5 5 5 5 6 10 12 13 13 13 12 10 7 6 4 3 4 5 5
3 5 8 4 4 4 3 3 3 3 4 8 7 3 2 2 4 1 5 1 2 3 3 2 1 2 5 4 4 6 4 7 9 8 8 8 7 5 3 3 4 7 8 8
3 4 4 3 2 1 2 2 3 3 6 6 4 3 1 2 3 2 3 5 2 3 3 1 2 5 5 5 5 5 5 6 6 5 6 6 5 4 5 6 8 7 8 10
4 6 4 4 2 4 3 2 3 4 7 4 3 2 2 2 2 4 0 4 3 2 0 2 5 5 5 5 5 7 7 6 6 6 4 4 5 7 7 9 8 10 11 13
4 2 1 2 1 3 3 2 3 10 4 3 3 3 2 2 2 2 2 1 1 2 4 3 4 5 4 7 8 7 5 5 4 4 5 5 5 6 7 11 14 14 14 14
Wind_Direction
1 359 346 332 328 332 307 263 265 312 169 223 199 186 197 224 230 226 198 128 113 165 158 158 178 195 240 175 153 193 175 115 151 196 294 299 139 173 144 134 212 202 152 263
2 3 3 357 346 336 293 230 261 277 207 226 212 229 224 227 199 197 188 176 155 170 162 164 169 175 126 165 172 171 177 185 103 7 352 354 200 200 160 111 88 193 145 251
1 355 353 352 349 342 332 272 296 270 244 309 261 241 212 201 199 199 196 147 110 119 146 7 169 138 168 133 149 98 144 132 196 211 183 137 189 182 182 169 155 168 217 165
358 354 351 346 344 344 324 186 248 233 279 231 250 275 202 186 150 186 166 88 195 149 134 109 134 119 120 52 113 75 146 169 140 41 112 127 170 181 185 201 208 184 201 188
351 351 351 346 343 343 259 270 274 236 269 285 265 234 204 183 164 139 221 161 152 120 153 175 182 141 150 171 127 124 360 163 114 61 91 178 194 196 197 209 163 265 130 239
345 344 345 346 343 346 277 230 270 248 266 284 274 241 191 199 148 27 98 146 119 78 146 121 94 68 87 116 137 126 128 131 99 204 42 91 315 205 183 184 176 187 195 199
341 340 340 340 341 349 344 318 253 284 291 302 300 306 257 204 194 134 151 95 100 200 143 112 65 59 68 60 41 51 131 110 106 170 44 149 242 11 328 147 106 135 101 141
345 340 338 339 340 346 339 325 334 301 294 320 296 334 325 94 121 71 105 39 305 157 138 81 81 9 46 29 40 5 73 116 92 143 214 286 338 187 174 173 217 178 127 114
356 353 351 344 343 338 337 330 330 267 284 320 307 324 346 71 128 96 88 39 117 350 70 76 143 162 156 171 112 353 95 126 117 136 178 212 160 169 177 150 275 175 149 146
5 4 359 351 343 341 352 304 349 289 273 14 339 358 333 342 359 110 120 132 103 345 115 159 188 216 150 175 190 158 99 49 215 198 214 273 229 169 162 153 238 148 146 147
1 4 5 3 3 2 355 325 338 326 293 330 0 2 6 343 4 59 146 112 124 95 133 156 169 161 196 100 160 168 190 185 200 150 194 243 156 49 171 181 76 122 125 112
353 355 356 360 360 1 359 337 345 345 348 322 322 323 15 4 306 312 15 59 104 134 112 134 124 128 150 154 175 42 201 191 166 146 138 36 35 72 73 135 126 126 114 114
348 348 347 350 354 353 2 344 349 336 341 347 24 338 329 12 358 349 71 50 91 72 34 140 126 125 127 147 184 104 309 317 98 127 27 39 28 47 52 97 109 111 119 120
345 344 343 343 345 352 340 29 14 356 325 31 7 356 15 358 22 47 59 95 64 83 46 70 86 106 321 132 108 103 18 14 106 66 89 90 41 41 91 87 91 91 73 88
342 341 339 337 338 339 322 330 22 14 345 345 336 325 359 16 36 54 66 59 72 39 63 61 79 83 115 23 90 50 342 43 127 153 168 85 100 58 84 92 87 87 99 78
339 338 335 334 335 345 5 326 341 359 358 26 34 295 337 350 13 40 44 39 48 56 75 71 66 51 59 82 76 20 359 24 287 118 91 95 93 68 64 91 89 85 88 93
337 335 333 331 339 6 64 82 317 337 334 49 28 5 354 341 356 20 8 28 59 71 93 54 76 39 39 59 73 30 36 37 58 94 102 83 25 100 77 90 91 93 88 90
335 331 329 325 353 50 49 341 336 339 8 52 73 316 18 1 8 26 353 6 13 24 69 71 36 56 67 78 70 71 50 70 52 51 71 95 108 87 76 87 93 83 78 82
335 335 338 350 30 14 310 322 328 1 44 87 57 24 335 340 9 4 11 25 55 325 45 22 16 7 50 41 93 33 357 65 112 84 82 88 87 88 78 81 74 87 80 73
345 355 19 2 345 319 321 28 22 17 346 25 42 327 348 335 343 36 19 21 34 57 43 342 59 76 70 27 52 53 29 44 66 96 86 85 80 79 71 71 70 77 71 62
358 14 336 312 330 340 28 33 54 335 24 9 336 17 329 357 13 27 20 61 8 72 333 54 67 92 78 37 48 42 64 71 62 78 75 77 93 100 98 80 72 68 58 45
302 293 299 316 20 20 62 4 340 38 25 341 344 331 335 311 334 71 351 85 31 90 345 69 71 168 135 127 91 64 63 76 72 79 87 88 84 86 90 80 68 58 2 329
355 17 34 29 332 35 42 355 340 356 347 3 332 316 344 335 36 52 51 61 26 333 38 121 160 132 126 113 111 87 77 81 78 71 77 85 89 87 78 61 17 332 321 321
59 38 17 64 10 30 14 319 300 321 316 320 314 284 20 305 30 328 75 300 49 50 42 272 209 116 120 103 97 100 79 85 92 91 95 90 82 76 68 29 357 335 330 337
50 40 37 30 336 331 343 336 302 358 316 311 312 291 75 336 61 40 80 30 0 187 212 182 142 121 121 109 107 113 113 106 89 84 76 65 50 37 22 8 355 346 333 328
58 38 28 319 45 316 346 339 307 351 322 284 232 285 6 4 110 44 244 101 214 254 127 103 118 109 99 108 102 106 109 101 92 78 59 39 27 12 351 346 358 350 336 326
53 345 309 170 250 230 270 315 295 323 320 355 306 339 347 329 48 46 6 82 15 102 99 85 91 109 113 116 111 105 104 100 82 51 30 18 6 352 350 348 343 338 336 333